Location: French Creek State Gamelands
(40.1750°N, 75.7969°W)
Time: 19:14:05
(UTC-05:00)

ISS - All Passes

Search period start: 22 February 2017 00:00
Search period end: 04 March 2017 00:00
Orbit: 399 x 408 km, 51.6° (Epoch: 23 February)

Date Brightness Start Highest point End Pass type
(mag) Time Alt. Az. Time Alt. Az. Time Alt. Az.
22 Feb - 08:59:38 10° SW 09:02:55 64° SE 09:06:10 10° ENE daylight
22 Feb - 10:37:00 10° WNW 10:39:37 21° NNW 10:42:15 10° NNE daylight
22 Feb - 12:15:52 10° NNW 12:17:03 11° N 12:18:14 10° NNE daylight
22 Feb - 13:52:18 10° NNW 13:54:34 17° NNE 13:56:50 10° ENE daylight
22 Feb - 15:28:10 10° NW 15:31:28 78° NE 15:34:44 10° SE daylight
22 Feb - 17:06:41 10° WSW 17:07:28 11° SW 17:08:15 10° SW daylight
23 Feb - 08:07:32 10° SSW 08:10:30 31° SE 08:13:28 10° ENE daylight
23 Feb - 09:43:57 10° W 09:46:57 31° NNW 09:49:57 10° NE daylight
23 Feb - 11:22:42 10° NW 11:24:12 12° N 11:25:43 10° NNE daylight
23 Feb - 13:00:01 10° NNW 13:01:47 14° NNE 13:03:34 10° NE daylight
23 Feb - 14:35:46 10° NW 14:38:55 42° NNE 14:42:03 10° ESE daylight
23 Feb - 16:12:39 10° W 16:15:12 21° SW 16:17:43 10° S daylight
24 Feb - 07:16:00 10° S 07:18:10 16° SE 07:20:19 10° E daylight
24 Feb - 08:51:06 10° WSW 08:54:20 53° NNW 08:57:35 10° NE daylight
24 Feb - 10:29:23 10° NW 10:31:23 15° NNW 10:33:22 10° NNE daylight
24 Feb - 12:07:36 10° NNW 12:08:56 12° N 12:10:16 10° NNE daylight
24 Feb - 13:43:25 10° NW 13:46:16 26° NNE 13:49:07 10° E daylight
24 Feb - 15:19:42 10° WNW 15:22:49 40° SW 15:25:55 10° SSE daylight
25 Feb - 07:58:30 10° SW 08:01:47 81° SE 08:05:06 10° NE daylight
25 Feb - 09:36:07 10° WNW 09:38:35 19° NNW 09:41:04 10° NNE daylight
25 Feb - 11:14:54 10° NNW 11:16:03 11° N 11:17:13 10° NNE daylight
25 Feb - 12:51:06 10° NNW 12:53:33 19° NNE 12:55:58 10° ENE daylight
25 Feb - 14:27:03 10° NW 14:30:21 84° SW 14:33:37 10° SE daylight
26 Feb - 07:06:13 10° SSW 07:09:19 39° SE 07:12:25 10° ENE daylight
26 Feb - 08:42:58 10° W 08:45:51 27° NNW 08:48:44 10° NE daylight
26 Feb - 10:21:48 10° NNW 10:23:10 12° N 10:24:32 10° NNE daylight
26 Feb - 11:58:47 10° NNW 12:00:43 15° NNE 12:02:40 10° NE daylight
26 Feb - 13:34:34 10° NW 13:37:47 51° NNE 13:41:00 10° ESE daylight
26 Feb - 15:11:46 10° W 15:13:58 17° SW 15:16:10 10° S daylight
27 Feb - 06:14:25 10° S 06:16:55 20° SE 06:19:25 10° E daylight
27 Feb - 07:50:01 10° WSW 07:53:10 43° NNW 07:56:21 10° NE daylight
27 Feb - 09:28:28 10° NW 09:30:17 14° NNW 09:32:07 10° NNE daylight
27 Feb - 11:06:23 10° NNW 11:07:51 12° N 11:09:19 10° NE daylight
27 Feb - 12:42:10 10° NW 12:45:08 30° NNE 12:48:05 10° E daylight
27 Feb - 14:18:36 10° WNW 14:21:36 32° SW 14:24:34 10° SSE daylight
28 Feb - 05:24:04 10° SE 05:24:35 10° SE 05:25:07 10° ESE visible
28 Feb - 06:57:16 10° SW 07:00:33 82° NW 07:03:52 10° NE daylight
28 Feb - 08:35:08 10° WNW 08:37:26 17° NNW 08:39:46 10° NNE daylight
28 Feb - 10:13:46 10° NNW 10:14:56 11° N 10:16:07 10° NNE daylight
28 Feb - 11:49:48 10° NNW 11:52:23 21° NNE 11:54:58 10° ENE daylight
28 Feb - 13:25:50 10° WNW 13:29:07 67° SW 13:32:22 10° SE daylight
01 Mar - 06:04:50 10° SW 06:08:01 49° SE 06:11:14 10° ENE visible
01 Mar - 07:41:53 10° W 07:44:38 24° NNW 07:47:24 10° NNE daylight
01 Mar - 09:20:45 10° NNW 09:22:01 12° N 09:23:17 10° NNE daylight
01 Mar - 10:57:27 10° NNW 10:59:33 16° NNE 11:01:39 10° NE daylight
01 Mar - 12:33:16 10° NW 12:36:32 62° NE 12:39:48 10° ESE daylight
01 Mar - 14:10:52 10° W 14:12:38 14° SW 14:14:22 10° SSW daylight
02 Mar - 05:12:49 10° S 05:15:33 25° SE 05:18:19 10° ENE visible
02 Mar - 06:48:49 10° W 06:51:54 37° NNW 06:55:00 10° NE daylight
02 Mar - 08:27:26 10° NW 08:29:05 13° N 08:30:45 10° NNE daylight
02 Mar - 10:05:03 10° NNW 10:06:40 13° N 10:08:16 10° NE daylight
02 Mar - 11:40:47 10° NW 11:43:52 35° NNE 11:46:55 10° E daylight
02 Mar - 13:17:25 10° WNW 13:20:14 26° SW 13:23:02 10° SSE daylight
03 Mar - 04:21:36 10° SSE 04:23:10 13° SE 04:24:44 10° E visible
03 Mar - 05:55:58 10° WSW 05:59:13 66° NW 06:02:31 10° NE visible
03 Mar - 07:34:02 10° WNW 07:36:11 16° NNW 07:38:21 10° NNE daylight
03 Mar - 09:12:29 10° NNW 09:13:43 12° N 09:14:57 10° NNE daylight
03 Mar - 10:48:23 10° NNW 10:51:06 23° NNE 10:53:48 10° E daylight
03 Mar - 12:24:32 10° WNW 12:27:45 53° SW 12:30:57 10° SE daylight
